Cairns, Australia

8:19 AM AEST on October 20, 2017 (GMT +1000)
Cairns International

Weather History for YBCS - March, 2012

Change the Weather History Date:

Wednesday, March 21, 2012

  Actual Average Record
Temperature  
Mean Temperature 82 °F -  
Max Temperature 87 °F 85 °F 89 °F (2004)
Min Temperature 77 °F 72 °F 68 °F (2003)
Cooling Degree Days 17    
Growing Degree Days 32 (Base 50)    
Moisture  
Dew Point 75 °F    
Average Humidity 78    
Maximum Humidity 89    
Minimum Humidity 55    
Precipitation  
Precipitation 0.01 in 0.38 in - ()
Sea Level Pressure  
Sea Level Pressure 29.55 in    
Wind  
Wind Speed 8 mph ()    
Max Wind Speed 20 mph    
Max Gust Speed -    
Visibility 7.2 miles    
Events Rain    
Averages and records for this station are not official NWS values.
T = Trace of Precipitation, MM = Missing Value Source: Averaged Metar Reports

Daily Weather History Graph

Daily Weather History Graph

Search for Another Location

Airport or City:

Trip Planner

Search our weather history database for the weather conditions in past years. The results will help you decide how hot, cold, wet, or windy it might be!

Date:

Astronomy

Mar. 21, 2012 Rise Set
Actual Time 6:21 AM AEST 6:27 PM AEST
Civil Twilight 5:59 AM AEST 6:48 PM AEST
Nautical Twilight 5:34 AM AEST 7:13 PM AEST
Astronomical Twilight 5:09 AM AEST 7:38 PM AEST
Moon 4:56 AM AEST (3/21) 5:22 PM AEST (3/21)
Length of Visible Light 12h 49m
Length of Day
12h 05m
Waning Crescent, 2% of the Moon is Illuminated
Mar 21
Waning Crescent
Mar 23
New
Mar 31
First Quarter
Apr 7
Full
Apr 13
Last Quarter

Hourly Weather History & Observations

Time (AEST) Temp. Heat Index Dew Point Humidity Pressure Visibility Wind Dir Wind Speed Gust Speed Precip Events Conditions
12:00 AM 80 °F - 75 °F 81% 29.59 in - NNW 10.4 mph - -  
12:00 AM 80.6 °F 86.2 °F 75.2 °F 84% 29.56 in 6.2 mi NNW 10.4 mph - N/A   Mostly Cloudy
12:30 AM 78.8 °F - 75.2 °F 89% 29.56 in 6.2 mi WNW 5.8 mph - N/A   Mostly Cloudy
1:00 AM 78.8 °F - 75.2 °F 89% 29.56 in 6.2 mi NW 5.8 mph - N/A   Scattered Clouds
1:30 AM 78.8 °F - 75.2 °F 89% 29.56 in 6.2 mi WNW 5.8 mph - N/A   Scattered Clouds
2:00 AM 78.8 °F - 75.2 °F 89% 29.56 in 6.2 mi NW 5.8 mph - N/A   Mostly Cloudy
2:30 AM 78.8 °F - 75.2 °F 89% 29.56 in 6.2 mi West 5.8 mph - N/A   Mostly Cloudy
3:00 AM 79 °F - 76 °F 86% 29.55 in - North 5.8 mph - -   Overcast
3:00 AM 78.8 °F - 75.2 °F 89% 29.53 in 6.2 mi North 5.8 mph - N/A   Mostly Cloudy
3:30 AM 78.8 °F - 75.2 °F 89% 29.53 in 6.2 mi NW 4.6 mph - N/A   Scattered Clouds
4:00 AM 80 °F - 73 °F 73% 29.55 in - NNW 8.1 mph - -  
4:00 AM 80.6 °F 85.4 °F 73.4 °F 79% 29.53 in 6.2 mi NNW 8.1 mph - N/A   Scattered Clouds
4:30 AM 78.8 °F - 73.4 °F 83% 29.53 in 6.2 mi WNW 6.9 mph - N/A   Partly Cloudy
5:00 AM 78.8 °F - 71.6 °F 78% 29.53 in 6.2 mi WNW 6.9 mph - N/A   Partly Cloudy
5:30 AM 78.8 °F - 71.6 °F 78% 29.53 in 6.2 mi NW 6.9 mph - N/A   Partly Cloudy
6:00 AM 78 °F - 72 °F 78% 29.57 in 16 mi WNW 5.8 mph - -   Partly Cloudy
6:00 AM 78.8 °F - 71.6 °F 78% 29.56 in 6.2 mi WNW 5.8 mph - N/A   Scattered Clouds
6:30 AM 80.6 °F 84.6 °F 71.6 °F 74% 29.56 in 6.2 mi NW 8.1 mph - N/A   Scattered Clouds
7:00 AM 80 °F - 72 °F 71% 29.59 in - WNW 6.9 mph - -  
7:00 AM 80.6 °F 84.6 °F 71.6 °F 74% 29.56 in 6.2 mi WNW 6.9 mph - N/A   Scattered Clouds
7:30 AM 80.6 °F 85.4 °F 73.4 °F 79% 29.59 in 6.2 mi West 8.1 mph - N/A   Scattered Clouds
8:00 AM 80.6 °F 85.4 °F 73.4 °F 79% 29.59 in 6.2 mi WNW 5.8 mph - N/A   Partly Cloudy
8:30 AM 84.2 °F 89.6 °F 71.6 °F 66% 29.59 in 6.2 mi NW 9.2 mph - N/A   Scattered Clouds
9:00 AM 84.2 °F 90.9 °F 73.4 °F 70% 29.59 in 6.2 mi WNW 5.8 mph - N/A   Scattered Clouds
9:30 AM 86.0 °F 91.8 °F 71.6 °F 62% 29.59 in 6.2 mi WNW 9.2 mph - N/A   Scattered Clouds
10:00 AM 86 °F - 72 °F 55% 29.61 in - NNW 9.2 mph - -  
10:00 AM 86.0 °F 91.8 °F 71.6 °F 62% 29.59 in 6.2 mi NNW 9.2 mph - N/A   Scattered Clouds
10:30 AM 87.8 °F 97.6 °F 75.2 °F 66% 29.59 in 6.2 mi NW 9.2 mph - N/A   Scattered Clouds
11:00 AM 86.0 °F 93.4 °F 73.4 °F 66% 29.59 in 6.2 mi WNW 10.4 mph - N/A   Scattered Clouds
11:30 AM 87.8 °F 99.7 °F 77.0 °F 70% 29.56 in 6.2 mi North 9.2 mph - N/A   Scattered Clouds
12:00 PM 87 °F - 76 °F 63% 29.56 in 19 mi North 19.6 mph - -   Partly Cloudy
12:00 PM 87.8 °F 99.7 °F 77.0 °F 70% 29.56 in 6.2 mi North 19.6 mph - N/A   Scattered Clouds
12:30 PM 86.0 °F 96.9 °F 77.0 °F 74% 29.53 in 6.2 mi North 18.4 mph - N/A   Scattered Clouds
1:00 PM 85 °F - 77 °F 71% 29.55 in - North 15.0 mph - -  
1:00 PM 86.0 °F 96.9 °F 77.0 °F 74% 29.53 in 6.2 mi North 15.0 mph - N/A   Scattered Clouds
1:30 PM 87.8 °F 102.5 °F 78.8 °F 75% 29.50 in 6.2 mi North 17.3 mph - N/A   Scattered Clouds
2:00 PM 86.0 °F 99.3 °F 78.8 °F 79% 29.50 in 6.2 mi North 17.3 mph - N/A   Scattered Clouds
2:30 PM 86.0 °F 96.9 °F 77.0 °F 74% 29.47 in 6.2 mi North 18.4 mph - N/A   Scattered Clouds
3:00 PM 86 °F - 78 °F 73% 29.49 in 19 mi North 15.0 mph - -   Partly Cloudy
3:00 PM 86.0 °F 99.3 °F 78.8 °F 79% 29.47 in 6.2 mi North 15.0 mph - N/A   Mostly Cloudy
3:30 PM 86.0 °F 99.3 °F 78.8 °F 79% 29.47 in 6.2 mi North 17.3 mph - N/A   Mostly Cloudy
4:00 PM 84 °F - 78 °F 76% 29.51 in - North 13.8 mph - -  
4:00 PM 84.2 °F 94.1 °F 77.0 °F 79% 29.50 in 6.2 mi North 13.8 mph - N/A Rain Light Rain Showers
4:30 PM 82.4 °F 89.5 °F 75.2 °F 79% 29.50 in 6.2 mi NNW 8.1 mph - N/A   Mostly Cloudy
5:00 PM 82.4 °F 89.5 °F 75.2 °F 79% 29.50 in 6.2 mi WNW 6.9 mph - N/A   Mostly Cloudy
5:30 PM 82.4 °F 90.9 °F 77.0 °F 84% 29.50 in 6.2 mi NW 5.8 mph - N/A   Mostly Cloudy
6:00 PM 83 °F - 78 °F 82% 29.52 in 16 mi WNW 3.5 mph - -   Partly Cloudy
6:00 PM 82.4 °F 92.4 °F 78.8 °F 89% 29.50 in 6.2 mi WNW 3.5 mph - N/A   Mostly Cloudy
6:30 PM 82.4 °F 90.9 °F 77.0 °F 84% 29.53 in 6.2 mi WNW 5.8 mph - N/A   Mostly Cloudy
7:00 PM 81 °F - 77 °F 83% 29.56 in - North 6.9 mph - -  
7:00 PM 80.6 °F 87.1 °F 77.0 °F 89% 29.53 in 6.2 mi North 6.9 mph - N/A   Mostly Cloudy
7:30 PM 80.6 °F 87.1 °F 77.0 °F 89% 29.56 in 6.2 mi WNW 4.6 mph - N/A   Mostly Cloudy
8:00 PM 80.6 °F 87.1 °F 77.0 °F 89% 29.53 in 6.2 mi SSE 4.6 mph - N/A   Mostly Cloudy
8:30 PM 80.6 °F 86.2 °F 75.2 °F 84% 29.53 in 6.2 mi Calm Calm - N/A   Mostly Cloudy
9:00 PM 79 °F - 75 °F 85% 29.55 in 16 mi WSW 2.3 mph - -   Partly Cloudy
9:00 PM 78.8 °F - 75.2 °F 89% 29.53 in 6.2 mi WSW 2.3 mph - N/A   Mostly Cloudy
9:30 PM 80.6 °F 85.4 °F 73.4 °F 79% 29.56 in 6.2 mi WNW 3.5 mph - N/A   Mostly Cloudy
10:00 PM 80 °F - 73 °F 75% 29.58 in - NW 6.9 mph - -  
10:00 PM 80.6 °F 85.4 °F 73.4 °F 79% 29.56 in 6.2 mi NW 6.9 mph - N/A   Partly Cloudy
10:30 PM 78.8 °F - 73.4 °F 83% 29.56 in 6.2 mi WNW 5.8 mph - N/A   Partly Cloudy
11:00 PM 78.8 °F - 73.4 °F 83% 29.56 in 6.2 mi WNW 5.8 mph - N/A   Partly Cloudy
11:30 PM 80.6 °F 85.4 °F 73.4 °F 79% 29.56 in 6.2 mi West 6.9 mph - N/A   Partly Cloudy